Weather reports worldwide

Advertisment
Riga, Latvia (26422): temperature & dewpoint: 16.07.2019 22:00:00 - 22.07.2019 22:00:00 (EEST)Riga, Latvia (26422): wind speed & gusts: 16.07.2019 22:00:00 - 22.07.2019 22:00:00 (EEST)Riga, Latvia (26422): wind direction: 16.07.2019 22:00:00 - 22.07.2019 22:00:00 (EEST)Riga, Latvia (26422): reduced air pressure: 16.07.2019 22:00:00 - 22.07.2019 22:00:00 (EEST)Riga, Latvia (26422): visibility: 16.07.2019 22:00:00 - 22.07.2019 22:00:00 (EEST)Riga, Latvia (26422): precipitation: 16.07.2019 22:00:00 - 22.07.2019 22:00:00 (EEST)
Date & Time tt [°C] td [°C] ff [km/h] ff [kn] fx [km/h] fx [kn] dd ppp [hPa] vv [km] rr [mm]
22.07.2019 22:00:00 - - - - - - - - - -
22.07.2019 21:00:00 17,8 16,6 14 8 21 11 N 1016,0 8 0,5
22.07.2019 20:00:00 - - - - - - - - - -
22.07.2019 19:00:00 - - - - - - - - - -
22.07.2019 18:00:00 19,9 15,5 11 6 23 12 NNW 1015,6 20 0,0
22.07.2019 17:00:00 - - - - - - - - - -
22.07.2019 16:00:00 - - - - - - - - - -
22.07.2019 15:00:00 21,7 15,0 11 6 23 13 N 1015,5 20 0,0
22.07.2019 14:00:00 - - - - - - - - - -
22.07.2019 13:00:00 - - - - - - - - - -
22.07.2019 12:00:00 19,5 15,1 11 6 18 10 NNW 1016,1 20 0,0
22.07.2019 11:00:00 - - - - - - - - - -
22.07.2019 10:00:00 - - - - - - - - - -
22.07.2019 09:00:00 18,3 16,2 11 6 18 10 NW 1015,5 18 0,0
22.07.2019 08:00:00 - - - - - - - - - -
22.07.2019 07:00:00 - - - - - - - - - -
22.07.2019 06:00:00 17,7 16,6 11 6 15 8 WNW 1015,8 10 0,0
22.07.2019 05:00:00 - - - - - - - - - -
22.07.2019 04:00:00 - - - - - - - - - -
22.07.2019 03:00:00 18,1 17,0 7 4 14 8 WSW 1015,5 9 0,0
22.07.2019 02:00:00 - - - - - - - - - -
22.07.2019 01:00:00 - - - - - - - - - -
22.07.2019 00:00:00 19,1 17,0 7 4 17 9 SE 1015,3 15 0,0
21.07.2019 23:00:00 - - - - - - - - - -
21.07.2019 22:00:00 - - - - - - - - - -
21.07.2019 21:00:00 21,0 16,7 14 8 42 23 W 1016,4 17 0,0
21.07.2019 20:00:00 - - - - - - - - - -
21.07.2019 19:00:00 - - - - - - - - - -
21.07.2019 18:00:00 27,6 11,5 11 6 28 15 SE 1014,8 20 0,0
21.07.2019 17:00:00 - - - - - - - - - -
21.07.2019 16:00:00 - - - - - - - - - -
21.07.2019 15:00:00 27,0 12,2 11 6 26 14 S 1016,4 20 0,0
21.07.2019 14:00:00 - - - - - - - - - -
21.07.2019 13:00:00 - - - - - - - - - -
21.07.2019 12:00:00 24,9 12,4 11 6 19 11 S 1017,2 20 0,0
21.07.2019 11:00:00 - - - - - - - - - -
21.07.2019 10:00:00 - - - - - - - - - -
21.07.2019 09:00:00 20,7 13,1 7 4 15 8 S 1018,1 20 0,0
21.07.2019 08:00:00 - - - - - - - - - -
21.07.2019 07:00:00 - - - - - - - - - -
21.07.2019 06:00:00 15,9 10,4 7 4 10 6 SE 1018,0 20 0,0
21.07.2019 05:00:00 - - - - - - - - - -
21.07.2019 04:00:00 - - - - - - - - - -
21.07.2019 03:00:00 15,5 10,4 4 2 9 5 SE 1018,2 20 0,0
21.07.2019 02:00:00 - - - - - - - - - -
21.07.2019 01:00:00 - - - - - - - - - -
21.07.2019 00:00:00 17,2 10,9 4 2 9 5 NE 1018,1 20 0,0
20.07.2019 23:00:00 - - - - - - - - - -
20.07.2019 22:00:00 - - - - - - - - - -
20.07.2019 21:00:00 21,4 9,2 7 4 16 8 NE 1017,1 20 0,0
20.07.2019 20:00:00 - - - - - - - - - -
20.07.2019 19:00:00 - - - - - - - - - -
20.07.2019 18:00:00 23,3 8,9 11 6 21 12 N 1017,1 20 0,0
20.07.2019 17:00:00 - - - - - - - - - -
20.07.2019 16:00:00 - - - - - - - - - -
20.07.2019 15:00:00 - - - - 19 11 - - 20 0,0
20.07.2019 14:00:00 - - - - - - - - - -
20.07.2019 13:00:00 - - - - - - - - - -
20.07.2019 12:00:00 - - - - 20 11 - - 20 0,0
20.07.2019 11:00:00 - - - - - - - - - -
20.07.2019 10:00:00 - - - - - - - - - -
20.07.2019 09:00:00 - - - - 14 8 - - 20 0,0
20.07.2019 08:00:00 - - - - - - - - - -
20.07.2019 07:00:00 - - - - - - - - - -
20.07.2019 06:00:00 - - - - 8 4 - - 20 0,0
20.07.2019 05:00:00 - - - - - - - - - -
20.07.2019 04:00:00 - - - - - - - - - -
20.07.2019 03:00:00 - - - - 16 9 - - 20 0,0
20.07.2019 02:00:00 - - - - - - - - - -
20.07.2019 01:00:00 - - - - - - - - - -
20.07.2019 00:00:00 - - - - 18 10 - - 20 0,0
19.07.2019 23:00:00 - - - - - - - - - -
19.07.2019 22:00:00 - - - - - - - - - -
19.07.2019 21:00:00 - - - - 26 14 - - 20 0,0
19.07.2019 20:00:00 - - - - - - - - - -
19.07.2019 19:00:00 - - - - - - - - - -
19.07.2019 18:00:00 21,3 11,0 22 12 36 19 N 1012,9 20 0,0
19.07.2019 17:00:00 - - - - - - - - - -
19.07.2019 16:00:00 - - - - - - - - - -
19.07.2019 15:00:00 21,7 12,5 18 10 35 19 N 1012,8 20 0,0
19.07.2019 14:00:00 - - - - - - - - - -
19.07.2019 13:00:00 - - - - - - - - - -
19.07.2019 12:00:00 19,9 15,0 14 8 30 16 NNW 1012,5 20 0,0
19.07.2019 11:00:00 - - - - - - - - - -
19.07.2019 10:00:00 - - - - - - - - - -
19.07.2019 09:00:00 16,7 14,1 14 8 29 16 NW 1012,3 20 0,0
19.07.2019 08:00:00 - - - - - - - - - -
19.07.2019 07:00:00 - - - - - - - - - -
19.07.2019 06:00:00 15,8 14,1 14 8 29 16 NNW 1012,2 20 0,0
19.07.2019 05:00:00 - - - - - - - - - -
19.07.2019 04:00:00 - - - - - - - - - -
19.07.2019 03:00:00 16,4 14,3 14 8 23 13 NW 1011,8 20 0,0
19.07.2019 02:00:00 - - - - - - - - - -
19.07.2019 01:00:00 - - - - - - - - - -
19.07.2019 00:00:00 17,3 14,9 18 10 27 14 NNW 1011,5 20 0,0
18.07.2019 23:00:00 - - - - - - - - - -
18.07.2019 22:00:00 - - - - - - - - - -
18.07.2019 21:00:00 18,8 14,6 18 10 33 18 NNW 1010,9 20 0,0
18.07.2019 20:00:00 - - - - - - - - - -
18.07.2019 19:00:00 - - - - - - - - - -
18.07.2019 18:00:00 20,5 13,9 22 12 44 24 NNW 1010,5 20 0,0
18.07.2019 17:00:00 - - - - - - - - - -
18.07.2019 16:00:00 - - - - - - - - - -
18.07.2019 15:00:00 20,6 12,0 22 12 43 23 N 1010,8 20 0,0
18.07.2019 14:00:00 - - - - - - - - - -
18.07.2019 13:00:00 - - - - - - - - - -
18.07.2019 12:00:00 20,7 12,8 25 14 39 21 N 1010,4 20 0,0
18.07.2019 11:00:00 - - - - - - - - - -
18.07.2019 10:00:00 - - - - - - - - - -
18.07.2019 09:00:00 17,7 13,1 14 8 29 15 N 1010,3 20 0,0
18.07.2019 08:00:00 - - - - - - - - - -
18.07.2019 07:00:00 - - - - - - - - - -
18.07.2019 06:00:00 14,7 13,3 7 4 16 9 N 1009,7 20 0,0
18.07.2019 05:00:00 - - - - - - - - - -
18.07.2019 04:00:00 - - - - - - - - - -
18.07.2019 03:00:00 14,8 13,4 7 4 14 8 N 1009,2 20 0,0
18.07.2019 02:00:00 - - - - - - - - - -
18.07.2019 01:00:00 - - - - - - - - - -
18.07.2019 00:00:00 15,8 14,3 11 6 16 9 NNW 1009,0 20 0,0
17.07.2019 23:00:00 - - - - - - - - - -
17.07.2019 22:00:00 - - - - - - - - - -
17.07.2019 21:00:00 18,2 13,6 14 8 23 13 N 1008,6 20 0,0
17.07.2019 20:00:00 - - - - - - - - - -
17.07.2019 19:00:00 - - - - - - - - - -
17.07.2019 18:00:00 19,0 15,0 18 10 27 14 N 1008,4 20 0,0
17.07.2019 17:00:00 - - - - - - - - - -
17.07.2019 16:00:00 - - - - - - - - - -
17.07.2019 15:00:00 18,8 14,8 25 14 38 21 N 1007,4 20 0,0
17.07.2019 14:00:00 - - - - - - - - - -
17.07.2019 13:00:00 - - - - - - - - - -
17.07.2019 12:00:00 18,8 14,0 14 8 31 17 NNW 1007,0 20 0,0
17.07.2019 11:00:00 - - - - - - - - - -
17.07.2019 10:00:00 - - - - - - - - - -
17.07.2019 09:00:00 15,5 13,8 11 6 20 11 NNE 1006,8 20 0,0
17.07.2019 08:00:00 - - - - - - - - - -
17.07.2019 07:00:00 - - - - - - - - - -
17.07.2019 06:00:00 13,0 12,5 4 2 8 4 WNW 1006,7 17 0,2
17.07.2019 05:00:00 - - - - - - - - - -
17.07.2019 04:00:00 - - - - - - - - - -
17.07.2019 03:00:00 13,1 12,7 4 2 9 5 N 1006,8 8 0,0
17.07.2019 02:00:00 - - - - - - - - - -
17.07.2019 01:00:00 - - - - - - - - - -
17.07.2019 00:00:00 13,3 12,4 11 6 14 8 ESE 1006,9 19 0,3
16.07.2019 23:00:00 - - - - - - - - - -
16.07.2019 22:00:00 - - - - - - - - - -

tt = temperature
td = dewpoint
ff = wind speed
fx = gusts
dd = wind direction
ppp = reduced air pressure
vv = visibility
rr = precipitation

Next stations